FW8954 Weather Reports


time (UTC)temp
C
wind
direction
speed
KPH
gust
KPH
rain 1hr
cm
rain 24hr
cm
rain mn
cm
humidity
%
barometer
mb
20260906233534 35 260 3.2 8.0 0.00 0.00 0.00 18 1016.1
20260906233050 36 204 1.6 8.0 0.00 0.00 0.00 17 1016.2
20260906232535 36 139 3.2 8.0 0.00 0.00 0.00 17 1016.3
20260906232035 36 282 1.6 6.4 0.00 0.00 0.00 18 1016.2
20260906231559 36 248 3.2 6.4 0.00 0.00 0.00 18 1016.2
20260906231038 36 114 1.6 6.4 0.00 0.00 0.00 18 1016.2
20260906230538 36 237 1.6 9.7 0.00 0.00 0.00 18 1016.2
20260906230056 36 102 1.6 9.7 0.00 0.00 0.00 18 1016.3
20260906225535 36 103 3.2 6.4 0.00 0.00 0.00 18 1016.3
20260906225035 36 186 1.6 6.4 0.00 0.00 0.00 18 1016.3
20260906224553 36 216 1.6 8.0 0.00 0.00 0.00 18 1016.3
20260906224037 35 248 1.6 8.0 0.00 0.00 0.00 19 1016.3
20260906223536 35 210 3.2 11.3 0.00 0.00 0.00 18 1016.3
20260906223057 36 233 1.6 14.5 0.00 0.00 0.00 18 1016.4
20260906222535 36 163 4.8 14.5 0.00 0.00 0.00 18 1016.5
20260906222037 36 9 3.2 9.7 0.00 0.00 0.00 18 1016.5
20260906221558 35 170 3.2 8.0 0.00 0.00 0.00 17 1016.5
20260906221035 35 74 3.2 8.0 0.00 0.00 0.00 18 1016.6
20260906220538 35 50 0.0 8.0 0.00 0.00 0.00 18 1016.7
20260906220055 36 127 1.6 9.7 0.00 0.00 0.00 18 1016.8
20260906215535 36 240 1.6 9.7 0.00 0.00 0.00 18 1017.0
20260906215036 36 158 3.2 11.3 0.00 0.00 0.00 18 1017.1
20260906214552 35 285 3.2 11.3 0.00 0.00 0.00 17 1017.1
20260906214034 35 103 3.2 14.5 0.00 0.00 0.00 17 1017.1
20260906213535 35 220 3.2 14.5 0.00 0.00 0.00 17 1017.3
20260906213056 35 341 3.2 8.0 0.00 0.00 0.00 17 1017.4
20260906212534 35 36 1.6 6.4 0.00 0.00 0.00 17 1017.5
20260906212035 35 212 3.2 6.4 0.00 0.00 0.00 17 1017.6
20260906211559 35 136 1.6 16.1 0.00 0.00 0.00 16 1017.7
20260906211036 34 292 1.6 16.1 0.00 0.00 0.00 16 1017.8
20260906210533 35 347 6.4 16.1 0.00 0.00 0.00 16 1017.7
20260906205531 35 300 1.6 8.0 0.00 0.00 0.00 15 1017.9
20260906205030 35 117 3.2 9.7 0.00 0.00 0.00 15 1018.1
20260906204620 35 138 3.2 9.7 0.00 0.00 0.00 16 1018.2
20260906204032 36 192 3.2 9.7 0.00 0.00 0.00 15 1018.2
20260906203536 36 155 3.2 9.7 0.00 0.00 0.00 15 1018.3
20260906203059 35 274 3.2 6.4 0.00 0.00 0.00 16 1018.4
20260906202531 35 70 1.6 9.7 0.00 0.00 0.00 16 1018.6
20260906202031 35 300 1.6 12.9 0.00 0.00 0.00 15 1018.6
20260906201605 35 84 4.8 12.9 0.00 0.00 0.00 15 1018.8
20260906201032 35 137 1.6 8.0 0.00 0.00 0.00 15 1018.8
20260906200532 35 201 3.2 8.0 0.00 0.00 0.00 15 1018.7
20260906200051 34 280 1.6 8.0 0.00 0.00 0.00 16 1018.8
20260906195533 33 221 3.2 8.0 0.00 0.00 0.00 17 1018.9
20260906195030 33 51 1.6 8.0 0.00 0.00 0.00 17 1019.0
20260906194556 33 326 1.6 11.3 0.00 0.00 0.00 17 1019.1
20260906194033 33 25 4.8 11.3 0.00 0.00 0.00 17 1019.2
20260906193532 33 25 3.2 9.7 0.00 0.00 0.00 17 1019.2
20260906193057 33 297 3.2 8.0 0.00 0.00 0.00 17 1019.2
20260906192531 33 304 3.2 8.0 0.00 0.00 0.00 16 1019.3
20260906192031 33 0 1.6 8.0 0.00 0.00 0.00 16 1019.4
20260906191554 33 16 1.6 8.0 0.00 0.00 0.00 16 1019.6
20260906191033 33 122 3.2 8.0 0.00 0.00 0.00 16 1019.6
20260906190537 33 20 1.6 8.0 0.00 0.00 0.00 16 1019.8
20260906190053 32 0 3.2 8.0 0.00 0.00 0.00 15 1019.9
20260906185537 32 39 3.2 8.0 0.00 0.00 0.00 15 1019.9
20260906185034 33 286 3.2 8.0 0.00 0.00 0.00 16 1020.0
20260906184557 33 262 1.6 6.4 0.00 0.00 0.00 17 1020.0
20260906184032 33 184 1.6 9.7 0.00 0.00 0.00 18 1020.1
20260906183534 32 222 1.6 9.7 0.00 0.00 0.00 18 1020.2
20260906183059 32 53 3.2 9.7 0.00 0.00 0.00 18 1020.2
20260906182531 32 304 0.0 8.0 0.00 0.00 0.00 18 1020.2
20260906182033 31 37 3.2 8.0 0.00 0.00 0.00 19 1020.3
20260906181556 31 13 3.2 8.0 0.00 0.00 0.00 21 1020.5
20260906181033 31 193 0.0 8.0 0.00 0.00 0.00 23 1020.5
20260906180534 31 79 3.2 8.0 0.00 0.00 0.00 22 1020.6
20260906180106 31 54 1.6 8.0 0.00 0.00 0.00 24 1020.7
20260906175533 30 45 3.2 9.7 0.00 0.00 0.00 25 1020.8
20260906175032 30 314 1.6 9.7 0.00 0.00 0.00 25 1020.7
20260906174604 30 23 3.2 8.0 0.00 0.00 0.00 26 1020.8
20260906174033 30 97 1.6 8.0 0.00 0.00 0.00 28 1020.9
20260906173530 29 35 1.6 9.7 0.00 0.00 0.00 27 1021.1
20260906173054 29 342 4.8 9.7 0.00 0.00 0.00 27 1021.1
20260906172537 29 306 4.8 9.7 0.00 0.00 0.00 28 1021.2
20260906172033 28 316 4.8 9.7 0.00 0.00 0.00 29 1021.3
20260906171555 28 50 4.8 9.7 0.00 0.00 0.00 29 1021.3
20260906171033 28 31 4.8 9.7 0.00 0.00 0.00 31 1021.4
20260906170531 28 23 4.8 9.7 0.00 0.00 0.00 31 1021.4
20260906170056 28 22 1.6 9.7 0.00 0.00 0.00 31 1021.5
20260906165535 28 72 3.2 8.0 0.00 0.00 0.00 31 1021.4
20260906165032 27 51 3.2 9.7 0.00 0.00 0.00 31 1021.5
20260906164556 27 3 3.2 9.7 0.00 0.00 0.00 31 1021.5
20260906164034 28 21 3.2 9.7 0.00 0.00 0.00 31 1021.5
20260906163536 28 12 3.2 9.7 0.00 0.00 0.00 31 1021.5
20260906163054 27 329 3.2 8.0 0.00 0.00 0.00 31 1021.5
20260906162535 27 322 3.2 11.3 0.00 0.00 0.00 32 1021.5
20260906162031 27 40 4.8 11.3 0.00 0.00 0.00 31 1021.5
20260906161601 27 339 4.8 12.9 0.00 0.00 0.00 31 1021.5
20260906161033 27 354 4.8 12.9 0.00 0.00 0.00 32 1021.5
20260906160531 27 6 4.8 14.5 0.00 0.00 0.00 32 1021.5
20260906160051 27 356 4.8 14.5 0.00 0.00 0.00 32 1021.5
20260906155537 27 330 3.2 11.3 0.00 0.00 0.00 32 1021.4
20260906155030 27 81 4.8 11.3 0.00 0.00 0.00 32 1021.5
20260906154606 27 1 3.2 12.9 0.00 0.00 0.00 31 1021.5
20260906154031 27 347 4.8 12.9 0.00 0.00 0.00 31 1021.5
20260906153533 27 24 4.8 12.9 0.00 0.00 0.00 31 1021.5
20260906153102 26 23 4.8 12.9 0.00 0.00 0.00 31 1021.4
20260906152533 26 265 6.4 12.9 0.00 0.00 0.00 31 1021.3
20260906152031 26 31 4.8 12.9 0.00 0.00 0.00 31 1021.3
20260906151551 26 316 3.2 9.7 0.00 0.00 0.00 32 1021.4
20260906151034 26 321 4.8 11.3 0.00 0.00 0.00 32 1021.5
20260906150531 26 334 4.8 12.9 0.00 0.00 0.00 33 1021.5
20260906145537 25 35 8.0 14.5 0.00 0.00 0.00 33 1021.4
20260906145031 25 309 4.8 14.5 0.00 0.00 0.00 34 1021.4
20260906144559 25 353 3.2 12.9 0.00 0.00 0.00 34 1021.4
20260906144031 24 300 4.8 14.5 0.00 0.00 0.00 34 1021.4
20260906143534 24 5 4.8 14.5 0.00 0.00 0.00 34 1021.3
20260906143107 24 349 4.8 11.3 0.00 0.00 0.00 35 1021.3
20260906142534 23 316 1.6 8.0 0.00 0.00 0.00 36 1021.2
20260906142035 23 282 3.2 8.0 0.00 0.00 0.00 36 1021.1
20260906141600 23 0 3.2 8.0 0.00 0.00 0.00 36 1021.1
20260906141032 22 3 3.2 8.0 0.00 0.00 0.00 37 1021.1
20260906140533 22 44 3.2 6.4 0.00 0.00 0.00 37 1021.2
20260906140059 22 25 1.6 4.8 0.00 0.00 0.00 38 1021.1
20260906135533 22 349 1.6 4.8 0.00 0.00 0.00 38 1021.1
20260906135034 22 44 1.6 4.8 0.00 0.00 0.00 37 1021.1
20260906134549 22 30 0.0 4.8 0.00 0.00 0.00 37 1021.0
20260906134034 22 0 1.6 4.8 0.00 0.00 0.00 37 1021.0
20260906133530 21 0 1.6 4.8 0.00 0.00 0.00 37 1020.9
20260906133107 21 51 1.6 4.8 0.00 0.00 0.00 38 1020.9
20260906132531 20 12 1.6 4.8 0.00 0.00 0.00 38 1020.7
20260906132031 20 318 0.0 1.6 0.00 0.00 0.00 39 1020.7
20260906131601 20 0 0.0 1.6 0.00 0.00 0.00 40 1020.7
20260906131031 20 335 0.0 1.6 0.00 0.00 0.00 41 1020.8
20260906130531 20 0 0.0 1.6 0.00 0.00 0.00 41 1020.8
20260906130058 19 0 0.0 0.0 0.00 0.00 0.00 41 1020.7
20260906125532 19 0 0.0 0.0 0.00 0.00 0.00 41 1020.7
20260906125033 18 0 0.0 0.0 0.00 0.00 0.00 42 1020.7
20260906124550 19 0 0.0 0.0 0.00 0.00 0.00 41 1020.7
20260906124035 19 0 0.0 0.0 0.00 0.00 0.00 41 1020.7
20260906123534 19 0 0.0 1.6 0.00 0.00 0.00 41 1020.6
20260906123050 19 0 0.0 1.6 0.00 0.00 0.00 41 1020.6
20260906122534 19 0 0.0 1.6 0.00 0.00 0.00 42 1020.6
20260906122034 20 0 0.0 0.0 0.00 0.00 0.00 42 1020.6
20260906121555 20 0 0.0 1.6 0.00 0.00 0.00 43 1020.5
20260906121031 20 0 0.0 1.6 0.00 0.00 0.00 42 1020.5
20260906120531 20 0 0.0 1.6 0.00 0.00 0.00 42 1020.5
20260906120126 20 0 0.0 1.6 0.00 0.00 0.00 41 1020.4
20260906115532 20 0 0.0 1.6 0.00 0.00 0.00 41 1020.4
20260906115031 21 0 0.0 1.6 0.00 0.00 0.00 41 1020.4
20260906114601 21 0 0.0 1.6 0.00 0.00 0.00 41 1020.4
20260906114032 21 0 0.0 1.6 0.00 0.00 0.00 41 1020.3
20260906113532 21 0 0.0 1.6 0.00 0.00 0.00 40 1020.3
20260906113055 21 0 0.0 0.0 0.00 0.00 0.00 41 1020.4
20260906112531 21 0 0.0 0.0 0.00 0.00 0.00 39 1020.4
20260906112032 21 0 0.0 0.0 0.00 0.00 0.00 39 1020.5
20260906111602 21 0 0.0 0.0 0.00 0.00 0.00 39 1020.4
20260906111031 21 0 0.0 0.0 0.00 0.00 0.00 39 1020.3
20260906110531 22 0 0.0 1.6 0.00 0.00 0.00 38 1020.2
20260906110055 22 0 0.0 1.6 0.00 0.00 0.00 38 1020.2
20260906105531 22 0 0.0 3.2 0.00 0.00 0.00 37 1020.2
20260906105036 22 0 0.0 3.2 0.00 0.00 0.00 37 1020.3
20260906104551 22 0 0.0 1.6 0.00 0.00 0.00 37 1020.2
20260906104034 22 0 0.0 1.6 0.00 0.00 0.00 37 1020.3
20260906103532 22 53 0.0 3.2 0.00 0.00 0.00 37 1020.3
20260906103051 22 0 0.0 3.2 0.00 0.00 0.00 36 1020.2
20260906102536 22 0 0.0 0.0 0.00 0.00 0.00 37 1020.2
20260906102034 22 0 0.0 0.0 0.00 0.00 0.00 37 1020.2
20260906101556 22 0 0.0 0.0 0.00 0.00 0.00 36 1020.2
20260906101037 23 0 0.0 0.0 0.00 0.00 0.00 36 1020.0
20260906100535 23 0 0.0 0.0 0.00 0.00 0.00 35 1020.1
20260906100100 23 0 0.0 0.0 0.00 0.00 0.00 35 1020.0
20260906095533 23 0 0.0 0.0 0.00 0.00 0.00 35 1020.1
20260906095032 23 0 0.0 1.6 0.00 0.00 0.00 35 1020.1
20260906094552 23 0 0.0 1.6 0.00 0.00 0.00 35 1020.1
20260906094034 23 0 0.0 1.6 0.00 0.00 0.00 35 1020.1
20260906093534 23 0 0.0 1.6 0.00 0.00 0.00 36 1020.0
20260906093057 23 0 0.0 1.6 0.00 0.00 0.00 36 1020.0
20260906092534 23 0 0.0 3.2 0.00 0.00 0.00 35 1019.9
20260906092034 23 18 0.0 3.2 0.00 0.00 0.00 35 1019.8
20260906091552 23 0 0.0 1.6 0.00 0.00 0.00 35 1019.8
20260906091034 23 282 0.0 1.6 0.00 0.00 0.00 36 1019.8
20260906090533 23 318 0.0 1.6 0.00 0.00 0.00 36 1019.7
20260906090058 23 0 0.0 0.0 0.00 0.00 0.00 37 1019.7
20260906085537 22 0 0.0 0.0 0.00 0.00 0.00 37 1019.7
20260906085035 22 0 0.0 0.0 0.00 0.00 0.00 37 1019.7
20260906084556 22 0 0.0 0.0 0.00 0.00 0.00 38 1019.7
20260906084035 22 0 0.0 0.0 0.00 0.00 0.00 38 1019.7
20260906083534 22 0 0.0 0.0 0.00 0.00 0.00 38 1019.8
20260906083046 22 0 0.0 0.0 0.00 0.00 0.00 38 1019.8
20260906082534 22 0 0.0 0.0 0.00 0.00 0.00 38 1019.9
20260906082032 22 0 0.0 0.0 0.00 0.00 0.00 38 1019.9
20260906081558 22 0 0.0 0.0 0.00 0.00 0.00 38 1020.0
20260906081033 22 0 0.0 0.0 0.00 0.00 0.00 38 1020.0
20260906080533 22 0 0.0 0.0 0.00 0.00 0.00 38 1020.1
20260906080058 22 0 0.0 0.0 0.00 0.00 0.00 38 1020.2
20260906075532 22 0 0.0 0.0 0.00 0.00 0.00 38 1020.2
20260906075032 22 0 0.0 0.0 0.00 0.00 0.00 38 1020.2
20260906074556 22 0 0.0 0.0 0.00 0.00 0.00 39 1020.2
20260906074034 22 0 0.0 1.6 0.00 0.00 0.00 39 1020.2
20260906073532 22 0 0.0 1.6 0.00 0.00 0.00 39 1020.2
20260906073055 22 0 0.0 0.0 0.00 0.00 0.00 40 1020.2
20260906072532 22 0 0.0 0.0 0.00 0.00 0.00 40 1020.3
20260906072034 22 0 0.0 0.0 0.00 0.00 0.00 39 1020.3
20260906071556 22 0 0.0 0.0 0.00 0.00 0.00 39 1020.3
20260906071035 22 0 0.0 0.0 0.00 0.00 0.00 38 1020.3
20260906070535 23 0 0.0 0.0 0.00 0.00 0.00 37 1020.3
20260906070057 23 0 0.0 0.0 0.00 0.00 0.00 37 1020.2
20260906065535 23 0 0.0 0.0 0.00 0.00 0.00 36 1020.3
20260906065032 24 0 0.0 1.6 0.00 0.00 0.00 35 1020.2
20260906064551 24 0 0.0 1.6 0.00 0.00 0.00 35 1020.3
20260906064034 24 0 0.0 1.6 0.00 0.00 0.00 35 1020.2
20260906063537 23 0 0.0 1.6 0.00 0.00 0.00 36 1020.2
20260906063057 23 0 0.0 1.6 0.00 0.00 0.00 36 1020.2
20260906062533 24 0 0.0 1.6 0.00 0.00 0.00 35 1020.2
20260906062034 24 0 0.0 1.6 0.00 0.00 0.00 35 1020.2
20260906061601 25 0 0.0 3.2 0.00 0.00 0.00 35 1020.0
20260906061035 25 0 0.0 3.2 0.00 0.00 0.00 34 1020.0
20260906060534 25 0 1.6 3.2 0.00 0.00 0.00 34 1019.9
20260906060056 25 98 0.0 1.6 0.00 0.00 0.00 35 1019.8
20260906055535 25 75 0.0 3.2 0.00 0.00 0.00 35 1019.9
20260906055035 25 65 0.0 3.2 0.00 0.00 0.00 35 1019.8
20260906054605 25 60 0.0 3.2 0.00 0.00 0.00 34 1019.7
20260906054034 25 0 0.0 1.6 0.00 0.00 0.00 33 1019.7
20260906053532 25 0 0.0 3.2 0.00 0.00 0.00 32 1019.8
20260906053055 26 336 0.0 4.8 0.00 0.00 0.00 32 1019.7
20260906052533 26 274 0.0 4.8 0.00 0.00 0.00 32 1019.7
20260906052032 26 331 0.0 4.8 0.00 0.00 0.00 31 1019.7
20260906051553 26 356 0.0 6.4 0.00 0.00 0.00 31 1019.7
20260906051035 26 355 0.0 6.4 0.00 0.00 0.00 31 1019.6
20260906050536 26 330 1.6 11.3 0.00 0.00 0.00 31 1019.6
20260906050104 26 293 3.2 11.3 0.00 0.00 0.00 31 1019.5
20260906045535 26 59 1.6 8.0 0.00 0.00 0.00 31 1019.5
20260906045035 26 284 1.6 9.7 0.00 0.00 0.00 31 1019.4
20260906044552 26 344 3.2 9.7 0.00 0.00 0.00 31 1019.6
20260906044034 26 300 3.2 8.0 0.00 0.00 0.00 31 1019.6
20260906043534 26 328 3.2 11.3 0.00 0.00 0.00 31 1019.6
20260906043048 26 330 3.2 11.3 0.00 0.00 0.00 30 1019.6
20260906042535 26 313 3.2 11.3 0.00 0.00 0.00 30 1019.5
20260906042033 27 283 0.0 6.4 0.00 0.00 0.00 30 1019.4
20260906041556 27 13 0.0 9.7 0.00 0.00 0.00 30 1019.4
20260906041033 27 15 1.6 9.7 0.00 0.00 0.00 30 1019.5
20260906040534 27 286 3.2 9.7 0.00 0.00 0.00 30 1019.5
20260906040104 27 296 3.2 9.7 0.00 0.00 0.00 30 1019.5
20260906035534 27 300 1.6 6.4 0.00 0.00 0.00 30 1019.6
20260906035034 27 248 1.6 6.4 0.00 0.00 0.00 29 1019.6
20260906034553 27 269 1.6 4.8 0.00 0.00 0.00 29 1019.5
20260906034034 27 272 0.0 9.7 0.00 0.00 0.00 29 1019.5
20260906033534 27 309 1.6 9.7 0.00 0.00 0.00 29 1019.5
20260906033117 27 267 1.6 4.8 0.00 0.00 0.00 29 1019.5
20260906032533 27 311 0.0 3.2 0.00 0.00 0.00 29 1019.4
20260906032034 27 325 0.0 8.0 0.00 0.00 0.00 29 1019.2
20260906031612 27 278 1.6 8.0 0.00 0.00 0.00 29 1019.2
20260906031037 28 288 1.6 8.0 0.00 0.00 0.00 29 1019.1
20260906030535 28 276 3.2 9.7 0.00 0.00 0.00 29 1019.0
20260906030056 28 256 3.2 9.7 0.00 0.00 0.00 29 1019.0
20260906025533 28 283 1.6 8.0 0.00 0.00 0.00 28 1018.9
20260906025034 28 271 3.2 9.7 0.00 0.00 0.00 28 1018.9
20260906024600 28 297 3.2 9.7 0.00 0.00 0.00 28 1018.7
20260906024035 28 283 4.8 9.7 0.00 0.00 0.00 28 1018.6
20260906023534 28 296 3.2 9.7 0.00 0.00 0.00 28 1018.6
20260906023101 28 283 1.6 8.0 0.00 0.00 0.00 29 1018.6
20260906022533 28 288 1.6 8.0 0.00 0.00 0.00 29 1018.4
20260906022035 28 53 1.6 6.4 0.00 0.00 0.00 29 1018.4
20260906021603 28 281 1.6 4.8 0.00 0.00 0.00 29 1018.3
20260906021032 28 254 1.6 4.8 0.00 0.00 0.00 29 1018.4
20260906020535 29 295 1.6 4.8 0.00 0.00 0.00 29 1018.3
20260906020054 29 279 0.0 4.8 0.00 0.00 0.00 29 1018.3
20260906015534 29 280 0.0 4.8 0.00 0.00 0.00 28 1018.2
20260906015032 30 264 0.0 4.8 0.00 0.00 0.00 28 1018.2
20260906014548 30 278 1.6 6.4 0.00 0.00 0.00 28 1018.1
20260906014036 30 0 0.0 6.4 0.00 0.00 0.00 28 1018.1
20260906013535 30 17 3.2 6.4 0.00 0.00 0.00 27 1018.2
20260906013104 30 283 1.6 8.0 0.00 0.00 0.00 28 1018.2
20260906012534 30 333 3.2 8.0 0.00 0.00 0.00 27 1018.2
20260906012034 30 343 1.6 8.0 0.00 0.00 0.00 27 1018.2
20260906011559 30 336 1.6 8.0 0.00 0.00 0.00 27 1018.2
20260906011036 31 288 3.2 8.0 0.00 0.00 0.00 27 1018.3
20260906010534 31 281 1.6 8.0 0.00 0.00 0.00 27 1018.2
20260906010055 31 283 1.6 8.0 0.00 0.00 0.00 27 1018.2
20260906005532 31 277 1.6 6.4 0.00 0.00 0.00 26 1018.2
20260906005034 32 298 1.6 9.7 0.00 0.00 0.00 26 1018.2
20260906004555 32 256 4.8 9.7 0.00 0.00 0.00 26 1018.2
20260906004034 32 250 1.6 9.7 0.00 0.00 0.00 27 1018.2
20260906003534 32 309 3.2 9.7 0.00 0.00 0.00 26 1018.2
20260906003056 32 285 3.2 14.5 0.00 0.00 0.00 26 1018.3
20260906002534 32 205 3.2 14.5 0.00 0.00 0.00 26 1018.4
20260906002034 32 251 1.6 6.4 0.00 0.00 0.00 26 1018.2
20260906001552 32 269 1.6 8.0 0.00 0.00 0.00 26 1018.2
20260906001034 32 13 1.6 8.0 0.00 0.00 0.00 26 1018.2
20260906000534 32 338 1.6 11.3 0.00 0.00 0.00 26 1018.2
20260906000059 32 312 1.6 14.5 0.00 0.00 0.00 26 1018.2
20260905235534 32 304 4.8 14.5 0.00 0.00 0.00 26 1018.2
20260905235034 32 286 4.8 12.9 0.00 0.00 0.00 26 1018.2
20260905234554 32 235 3.2 12.9 0.00 0.00 0.00 26 1018.1
20260905234035 32 251 3.2 12.9 0.00 0.00 0.00 26 1018.1